FW9204 Weather Reports


time (UTC)temp
C
wind
direction
speed
KPH
gust
KPH
rain 1hr
cm
rain 24hr
cm
rain mn
cm
humidity
%
barometer
mb
20260505165040 21 190 4.8 19.3 0.00 0.00 0.00 58 1017.2
20260505164551 21 46 1.6 9.7 0.00 0.00 0.00 62 1017.3
20260505164040 21 67 3.2 9.7 0.00 0.00 0.00 61 1017.5
20260505163543 20 200 3.2 9.7 0.00 0.00 0.00 60 1017.5
20260505163047 20 5 1.6 9.7 0.00 0.00 0.00 63 1017.3
20260505162541 20 211 3.2 9.7 0.00 0.00 0.00 63 1017.5
20260505162040 20 291 3.2 9.7 0.00 0.00 0.00 68 1017.5
20260505161603 19 0 1.6 8.0 0.00 0.00 0.00 70 1017.4
20260505161042 19 0 1.6 11.3 0.00 0.00 0.00 66 1017.5
20260505160541 19 284 3.2 11.3 0.00 0.00 0.00 68 1017.6
20260505153051 18 0 1.6 14.5 0.00 0.00 0.00 70 1017.6
20260505152541 18 222 1.6 14.5 0.00 0.00 0.00 70 1017.6
20260505152040 18 316 3.2 12.9 0.00 0.00 0.00 70 1017.6
20260505151617 18 268 3.2 12.9 0.00 0.00 0.00 67 1017.6
20260505151039 18 166 3.2 9.7 0.00 0.00 0.00 68 1017.3
20260505150539 18 155 1.6 9.7 0.00 0.00 0.00 68 1017.4
20260505140540 16 349 1.6 14.5 0.00 0.00 0.00 73 1017.0
20260505125040 13 126 1.6 9.7 0.00 0.00 0.00 83 1017.1
20260505124556 12 40 1.6 8.0 0.00 0.00 0.00 84 1017.0
20260505124043 12 0 1.6 8.0 0.00 0.00 0.00 86 1017.0
20260505123543 11 166 0.0 4.8 0.00 0.00 0.00 86 1017.1
20260505123056 11 0 0.0 3.2 0.00 0.00 0.00 89 1017.0
20260505122540 11 164 0.0 1.6 0.00 0.00 0.00 90 1016.8
20260505122040 10 0 0.0 0.0 0.00 0.00 0.00 91 1016.9
20260505121553 10 0 0.0 0.0 0.00 0.00 0.00 92 1016.7
20260505121040 10 0 0.0 0.0 0.00 0.00 0.00 92 1016.6
20260505120540 9 0 0.0 0.0 0.00 0.00 0.00 92 1016.6
20260505120111 9 0 0.0 1.6 0.00 0.00 0.00 92 1016.8
20260505115540 8 0 0.0 1.6 0.00 0.00 0.00 92 1016.7
20260505115039 8 0 0.0 1.6 0.00 0.00 0.00 92 1016.6
20260505114552 8 0 0.0 0.0 0.00 0.00 0.00 92 1016.6
20260505114041 8 0 0.0 3.2 0.00 0.00 0.00 91 1016.4
20260505113540 8 0 0.0 3.2 0.00 0.00 0.00 91 1016.4
20260505113049 8 168 0.0 3.2 0.00 0.00 0.00 91 1016.4
20260505112540 8 0 0.0 0.0 0.00 0.00 0.00 91 1016.2
20260505112040 8 0 0.0 0.0 0.00 0.00 0.00 91 1016.3
20260505111550 8 0 0.0 0.0 0.00 0.00 0.00 91 1016.1
20260505111041 8 0 0.0 0.0 0.00 0.00 0.00 90 1016.1
20260505110539 8 0 0.0 0.0 0.00 0.00 0.00 90 1016.0
20260505102041 8 0 0.0 0.0 0.00 0.00 0.00 89 1015.6
20260505101553 8 0 0.0 0.0 0.00 0.00 0.00 89 1015.5
20260505101040 8 0 0.0 0.0 0.00 0.00 0.00 88 1015.6
20260505100540 8 0 0.0 0.0 0.00 0.00 0.00 88 1015.6
20260505100051 8 0 0.0 0.0 0.00 0.00 0.00 88 1015.7
20260505095540 8 0 0.0 0.0 0.00 0.00 0.00 88 1015.7
20260505095039 8 0 0.0 0.0 0.00 0.00 0.00 88 1015.8
20260505094550 9 0 0.0 0.0 0.00 0.00 0.00 88 1015.9
20260505094044 9 0 0.0 0.0 0.00 0.00 0.00 87 1016.0
20260505093540 9 0 0.0 0.0 0.00 0.00 0.00 87 1016.0
20260505093048 9 0 0.0 0.0 0.00 0.00 0.00 87 1016.1
20260505092542 9 0 0.0 0.0 0.00 0.00 0.00 86 1015.9
20260505092039 9 0 0.0 0.0 0.00 0.00 0.00 87 1015.9
20260505091553 9 0 0.0 0.0 0.00 0.00 0.00 87 1015.9
20260505091039 10 0 0.0 0.0 0.00 0.00 0.00 86 1016.0
20260505090539 10 0 0.0 0.0 0.00 0.00 0.00 86 1015.9
20260505090051 10 0 0.0 0.0 0.00 0.00 0.00 85 1016.0
20260505085540 10 0 0.0 0.0 0.00 0.00 0.00 85 1016.0
20260505085040 10 0 0.0 0.0 0.00 0.00 0.00 85 1016.0
20260505084552 10 0 0.0 0.0 0.00 0.00 0.00 85 1016.0
20260505084040 10 0 0.0 0.0 0.00 0.00 0.00 84 1016.0
20260505083540 10 0 0.0 0.0 0.00 0.00 0.00 84 1016.0
20260505083052 10 0 0.0 0.0 0.00 0.00 0.00 84 1015.9
20260505082541 10 0 0.0 0.0 0.00 0.00 0.00 84 1015.9
20260505082041 10 0 0.0 3.2 0.00 0.00 0.00 84 1015.9
20260505081549 10 0 0.0 3.2 0.00 0.00 0.00 85 1015.9
20260505081042 10 0 0.0 3.2 0.00 0.00 0.00 84 1015.8
20260505080540 10 0 0.0 3.2 0.00 0.00 0.00 85 1015.6
20260505080051 10 0 0.0 1.6 0.00 0.00 0.00 85 1015.6
20260505075542 10 0 0.0 3.2 0.00 0.00 0.00 85 1015.5
20260505075041 10 5 0.0 3.2 0.00 0.00 0.00 86 1015.5
20260505074601 10 5 0.0 4.8 0.00 0.00 0.00 85 1015.5
20260505074041 11 98 0.0 4.8 0.00 0.00 0.00 85 1015.5
20260505073542 11 75 0.0 1.6 0.00 0.00 0.00 85 1015.5
20260505073103 11 0 0.0 3.2 0.00 0.00 0.00 85 1015.5
20260505072542 11 0 0.0 3.2 0.00 0.00 0.00 85 1015.5
20260505072042 11 0 0.0 3.2 0.00 0.00 0.00 84 1015.5
20260505071552 11 0 0.0 3.2 0.00 0.00 0.00 84 1015.7
20260505071040 11 0 0.0 1.6 0.00 0.00 0.00 84 1015.8
20260505070540 11 0 0.0 1.6 0.00 0.00 0.00 83 1015.8
20260505070049 11 51 0.0 1.6 0.00 0.00 0.00 84 1015.9
20260505065541 11 51 0.0 1.6 0.00 0.00 0.00 83 1015.9
20260505065042 11 0 0.0 1.6 0.00 0.00 0.00 83 1015.9
20260505064551 11 0 0.0 3.2 0.00 0.00 0.00 83 1015.9
20260505064040 11 0 0.0 3.2 0.00 0.00 0.00 82 1015.9
20260505063541 12 0 0.0 3.2 0.00 0.00 0.00 82 1015.9
20260505063049 12 81 0.0 6.4 0.00 0.00 0.00 82 1016.0
20260505062544 12 0 0.0 6.4 0.00 0.00 0.00 81 1016.0
20260505062039 12 65 0.0 6.4 0.00 0.00 0.00 81 1016.2
20260505061558 12 101 0.0 6.4 0.00 0.00 0.00 80 1016.1
20260505061040 12 0 1.6 6.4 0.00 0.00 0.00 80 1016.1
20260505060540 12 0 0.0 6.4 0.00 0.00 0.00 79 1016.3
20260505060059 12 0 0.0 6.4 0.00 0.00 0.00 80 1016.1
20260505055540 12 115 1.6 6.4 0.00 0.00 0.00 80 1016.2
20260505055041 12 82 1.6 4.8 0.00 0.00 0.00 79 1016.1
20260505054611 12 0 0.0 3.2 0.00 0.00 0.00 80 1016.2
20260505054039 12 0 0.0 3.2 0.00 0.00 0.00 79 1016.4
20260505053539 13 0 0.0 6.4 0.00 0.00 0.00 78 1016.2
20260505053107 13 0 0.0 6.4 0.00 0.00 0.00 79 1016.2
20260505052541 13 0 0.0 4.8 0.00 0.00 0.00 79 1016.2
20260505052041 13 0 0.0 4.8 0.00 0.00 0.00 79 1016.1
20260505051546 13 55 0.0 4.8 0.00 0.00 0.00 78 1016.0
20260505051040 13 65 1.6 4.8 0.00 0.00 0.00 78 1016.2
20260505050542 13 0 0.0 3.2 0.00 0.00 0.00 78 1016.1
20260505041555 14 0 0.0 6.4 0.00 0.00 0.00 75 1015.9
20260505041041 14 132 0.0 6.4 0.00 0.00 0.00 74 1016.0
20260505040544 14 117 1.6 3.2 0.00 0.00 0.00 74 1015.7
20260505040056 14 107 0.0 3.2 0.00 0.00 0.00 73 1015.7
20260505035541 15 0 0.0 3.2 0.00 0.00 0.00 73 1015.9
20260505035042 15 0 0.0 3.2 0.00 0.00 0.00 72 1015.9
20260505034549 15 135 0.0 3.2 0.00 0.00 0.00 72 1015.9
20260505034041 15 37 0.0 3.2 0.00 0.00 0.00 71 1015.8
20260505033541 15 107 0.0 3.2 0.00 0.00 0.00 72 1015.9
20260505033052 15 0 0.0 4.8 0.00 0.00 0.00 71 1015.9
20260505032541 15 0 0.0 4.8 0.00 0.00 0.00 71 1015.9
20260505032041 15 198 0.0 6.4 0.00 0.00 0.00 70 1016.0
20260505031606 15 167 1.6 6.4 0.00 0.00 0.00 70 1016.0
20260505031041 15 0 0.0 6.4 0.00 0.00 0.00 69 1016.0
20260505030541 15 0 0.0 4.8 0.00 0.00 0.00 69 1015.9
20260505030055 15 95 0.0 4.8 0.00 0.00 0.00 68 1015.8
20260505025542 15 129 0.0 9.7 0.00 0.00 0.00 68 1015.7
20260505025040 15 138 0.0 9.7 0.00 0.00 0.00 67 1015.7
20260505024557 15 0 0.0 4.8 0.00 0.00 0.00 67 1015.9
20260505024041 15 121 1.6 4.8 0.00 0.00 0.00 66 1015.8
20260505023545 16 112 1.6 6.4 0.00 0.00 0.00 66 1016.0
20260505023111 16 0 0.0 11.3 0.00 0.00 0.00 65 1015.9
20260505022541 16 13 1.6 11.3 0.00 0.00 0.00 66 1015.9
20260505022041 16 43 1.6 4.8 0.00 0.00 0.00 66 1015.8
20260505021549 16 168 0.0 4.8 0.00 0.00 0.00 65 1015.9
20260505021040 16 244 1.6 4.8 0.00 0.00 0.00 65 1015.8
20260505020541 16 0 0.0 4.8 0.00 0.00 0.00 65 1015.8
20260505020057 16 119 0.0 6.4 0.00 0.00 0.00 64 1015.8
20260505015539 16 214 0.0 6.4 0.00 0.00 0.00 64 1015.8
20260505015041 16 269 0.0 3.2 0.00 0.00 0.00 64 1015.7
20260505014608 16 0 0.0 4.8 0.00 0.00 0.00 64 1015.8
20260505014041 16 78 0.0 4.8 0.00 0.00 0.00 64 1015.7
20260505013541 16 84 0.0 6.4 0.00 0.00 0.00 63 1015.8
20260505013106 16 0 1.6 6.4 0.00 0.00 0.00 63 1015.8
20260505012540 17 161 0.0 4.8 0.00 0.00 0.00 63 1015.8
20260505012040 17 121 1.6 6.4 0.00 0.00 0.00 64 1015.6
20260505011552 17 0 1.6 8.0 0.00 0.00 0.00 64 1015.6
20260505011041 17 0 0.0 8.0 0.00 0.00 0.00 63 1015.5
20260505010541 17 187 1.6 8.0 0.00 0.00 0.00 63 1015.5
20260505010053 17 113 1.6 8.0 0.00 0.00 0.00 64 1015.6
20260505005539 17 64 0.0 8.0 0.00 0.00 0.00 64 1015.7
20260505005042 18 12 0.0 4.8 0.00 0.00 0.00 62 1015.6
20260505004556 18 0 0.0 4.8 0.00 0.00 0.00 63 1015.4
20260505004042 18 0 0.0 4.8 0.00 0.00 0.00 62 1015.4
20260505003542 18 267 1.6 4.8 0.00 0.00 0.00 62 1015.4
20260505003053 18 0 1.6 6.4 0.00 0.00 0.00 61 1015.3
20260505002540 19 0 0.0 11.3 0.00 0.00 0.00 62 1015.4
20260505002042 19 169 1.6 11.3 0.00 0.00 0.00 62 1015.3
20260505001554 19 123 1.6 11.3 0.00 0.00 0.00 61 1015.4
20260505001041 20 38 0.0 12.9 0.00 0.00 0.00 61 1015.4
20260505000538 20 0 0.0 12.9 0.00 0.00 0.00 61 1015.4
20260505000106 20 30 3.2 12.9 0.00 0.00 0.00 60 1015.3
20260504235542 20 102 0.0 4.8 0.00 0.00 0.00 61 1015.3
20260504235042 20 168 1.6 4.8 0.00 0.00 0.00 59 1015.4
20260504234551 21 146 0.0 6.4 0.00 0.00 0.00 59 1015.3
20260504234038 21 104 0.0 6.4 0.00 0.00 0.00 58 1015.4
20260504233541 21 118 1.6 8.0 0.00 0.00 0.00 58 1015.4
20260504233057 21 288 1.6 8.0 0.00 0.00 0.00 56 1015.4
20260504232542 21 186 0.0 11.3 0.00 0.00 0.00 57 1015.3
20260504232041 21 129 1.6 12.9 0.00 0.00 0.00 56 1015.3
20260504231553 21 120 3.2 12.9 0.00 0.00 0.00 54 1015.3
20260504231041 22 162 3.2 12.9 0.00 0.00 0.00 54 1015.3
20260504230541 22 134 1.6 6.4 0.00 0.00 0.00 56 1015.3
20260504230104 22 225 0.0 8.0 0.00 0.00 0.00 54 1015.2
20260504225539 22 43 3.2 8.0 0.00 0.00 0.00 54 1015.2
20260504225040 22 272 3.2 6.4 0.00 0.00 0.00 52 1015.1
20260504224549 22 182 1.6 12.9 0.00 0.00 0.00 52 1015.2
20260504224041 22 309 0.0 14.5 0.00 0.00 0.00 48 1015.1
20260504223541 22 22 3.2 16.1 0.00 0.00 0.00 47 1015.1
20260504223056 22 227 3.2 16.1 0.00 0.00 0.00 48 1015.2
20260504222542 22 140 1.6 16.1 0.00 0.00 0.00 46 1015.2
20260504222041 23 0 0.0 11.3 0.00 0.00 0.00 47 1015.1
20260504221558 23 236 1.6 11.3 0.00 0.00 0.00 46 1015.2
20260504221039 23 204 3.2 11.3 0.00 0.00 0.00 47 1015.1
20260504220541 23 340 1.6 9.7 0.00 0.00 0.00 47 1015.1
20260504220059 23 306 3.2 9.7 0.00 0.00 0.00 48 1015.0
20260504215545 23 181 1.6 9.7 0.00 0.00 0.00 51 1015.0
20260504215042 23 172 1.6 11.3 0.00 0.00 0.00 49 1015.0
20260504214550 23 119 0.0 12.9 0.00 0.00 0.00 48 1015.2
20260504214040 23 24 4.8 12.9 0.00 0.00 0.00 48 1015.1
20260504213540 23 210 1.6 6.4 0.00 0.00 0.00 47 1015.2
20260504213050 23 74 1.6 6.4 0.00 0.00 0.00 49 1015.1
20260504212543 23 227 1.6 6.4 0.00 0.00 0.00 49 1015.2
20260504212041 23 0 1.6 6.4 0.00 0.00 0.00 49 1015.3
20260504211550 23 325 1.6 12.9 0.00 0.00 0.00 48 1015.2
20260504211041 23 15 1.6 12.9 0.00 0.00 0.00 48 1015.3
20260504210543 24 296 1.6 12.9 0.00 0.00 0.00 47 1015.3
20260504210054 24 306 3.2 9.7 0.00 0.00 0.00 47 1015.4
20260504205542 24 0 3.2 11.3 0.00 0.00 0.00 46 1015.5
20260504205040 25 288 4.8 11.3 0.00 0.00 0.00 47 1015.5
20260504204546 25 209 3.2 9.7 0.00 0.00 0.00 47 1015.6
20260504204042 25 82 0.0 9.7 0.00 0.00 0.00 47 1015.7
20260504203540 25 231 3.2 11.3 0.00 0.00 0.00 48 1015.6
20260504203100 24 126 1.6 11.3 0.00 0.00 0.00 45 1015.8
20260504202540 25 84 1.6 8.0 0.00 0.00 0.00 47 1015.8
20260504202041 25 336 3.2 8.0 0.00 0.00 0.00 47 1015.8
20260504201550 25 286 3.2 8.0 0.00 0.00 0.00 46 1016.0
20260504201040 24 334 3.2 11.3 0.00 0.00 0.00 48 1016.0
20260504200540 24 0 3.2 11.3 0.00 0.00 0.00 47 1016.1
20260504200051 24 136 3.2 8.0 0.00 0.00 0.00 48 1016.2
20260504195540 25 211 3.2 11.3 0.00 0.00 0.00 46 1016.2
20260504195042 25 286 3.2 11.3 0.00 0.00 0.00 48 1016.3
20260504194554 25 315 1.6 11.3 0.00 0.00 0.00 50 1016.3
20260504194041 24 317 3.2 11.3 0.00 0.00 0.00 48 1016.3
20260504193540 24 302 1.6 11.3 0.00 0.00 0.00 48 1016.5
20260504193055 24 19 3.2 22.5 0.00 0.00 0.00 50 1016.5
20260504192540 24 292 3.2 22.5 0.00 0.00 0.00 47 1016.6
20260504192040 24 207 6.4 22.5 0.00 0.00 0.00 49 1016.5
20260504191600 25 223 3.2 12.9 0.00 0.00 0.00 49 1016.6
20260504191040 24 192 1.6 12.9 0.00 0.00 0.00 50 1016.7
20260504190540 24 65 3.2 12.9 0.00 0.00 0.00 48 1016.8
20260504190049 23 207 1.6 8.0 0.00 0.00 0.00 53 1016.8
20260504185540 23 301 1.6 6.4 0.00 0.00 0.00 55 1016.8
20260504185040 23 298 1.6 6.4 0.00 0.00 0.00 52 1017.0
20260504184551 23 194 1.6 11.3 0.00 0.00 0.00 51 1017.0
20260504184044 23 30 3.2 14.5 0.00 0.00 0.00 51 1017.1
20260504183541 23 296 3.2 14.5 0.00 0.00 0.00 53 1017.0
20260504183049 23 87 1.6 11.3 0.00 0.00 0.00 53 1017.1
20260504182540 23 295 1.6 11.3 0.00 0.00 0.00 53 1017.0
20260504182040 23 273 3.2 9.7 0.00 0.00 0.00 51 1017.1
20260504181559 23 296 3.2 11.3 0.00 0.00 0.00 56 1017.1
20260504181040 23 209 3.2 11.3 0.00 0.00 0.00 52 1017.3
20260504180540 23 347 1.6 11.3 0.00 0.00 0.00 54 1017.2
20260504180059 23 261 3.2 14.5 0.00 0.00 0.00 52 1017.1
20260504175541 23 70 3.2 14.5 0.00 0.00 0.00 51 1017.2
20260504175041 23 118 1.6 9.7 0.00 0.00 0.00 53 1017.3
20260504174551 23 321 3.2 11.3 0.00 0.00 0.00 53 1017.4
20260504174041 23 275 1.6 12.9 0.00 0.00 0.00 51 1017.4
20260504173540 23 74 3.2 12.9 0.00 0.00 0.00 52 1017.4
20260504173050 23 36 3.2 12.9 0.00 0.00 0.00 54 1017.4
20260504172540 23 243 3.2 11.3 0.00 0.00 0.00 55 1017.5
20260504172040 23 171 3.2 11.3 0.00 0.00 0.00 55 1017.5
20260504171554 23 191 1.6 11.3 0.00 0.00 0.00 56 1017.5
20260504171040 23 296 3.2 11.3 0.00 0.00 0.00 53 1017.5
20260504170541 23 80 4.8 11.3 0.00 0.00 0.00 53 1017.7